Location: ?e?kov
(49.6156°N, 14.7446°E)
Time: 16:41:52
(UTC+00:00)

Daily predictions for brighter satellites

Satellite Brightness Start Highest point End
(mag) Time Altitude Azimuth Time Altitude Azimuth Time Altitude Azimuth
CZ-4C R/B 3.0 15:27:36 10° NW 15:34:32 67° NE 15:42:46 10° SE
ATLAS 2AS CENTAUR R/B 4.1 15:30:20 10° WNW 15:36:50 28° N 15:43:03 10° NE
Cosmos 1340 Rocket 3.3 15:32:58 10° NNW 15:37:02 69° W 15:41:05 10° S
ADEOS 3.8 15:32:29 10° SSE 15:37:43 81° WSW 15:42:59 10° NNW
Cosmos 841 Rocket 4.0 15:33:18 10° S 15:38:06 42° ESE 15:42:56 10° NE
Cosmos 2034 Rocket 4.0 15:32:22 10° S 15:38:30 80° E 15:44:42 10° NNE
Cosmos 1743 Rocket 3.6 15:37:33 10° N 15:41:55 89° WSW 15:46:15 10° S
Cosmos 1697 Rocket 3.2 15:36:21 10° NNW 15:41:56 68° WSW 15:47:30 10° SSE
USA 307 3.3 15:38:39 10° WNW 15:42:48 48° N 15:46:56 10° E
Cosmos 372 Rocket 4.0 15:38:40 10° NNW 15:43:53 65° ENE 15:49:06 10° SE
Cosmos 2322 Rocket 3.3 15:39:42 10° NNW 15:44:15 24° NE 15:48:47 10° E
CZ-4C R/B 3.2 15:40:50 10° NNE 15:44:39 90° S 15:48:14 10° SSW
Meteor PRIRODA 3.6 15:41:16 10° SSE 15:44:51 65° ENE 15:48:27 10° N
Cosmos 1937 Rocket 3.7 15:39:55 10° NNW 15:45:17 85° WSW 15:50:35 10° SSE
ERBS 3.8 15:42:53 10° WNW 15:45:28 22° N 15:48:03 10° NE
USA 234 3.3 15:40:02 10° ESE 15:46:29 66° NNE 15:52:57 10° WNW
Lacrosse 5 rocket 1.3 15:42:54 10° NW 15:46:43 58° NNE 15:50:44 10° ESE
Cosmos 1980 Rocket 2.2 15:42:28 10° NNW 15:48:11 76° ENE 15:53:48 10° SSE
Cosmos 2026 Rocket 3.9 15:46:02 10° N 15:52:09 65° ENE 15:58:09 10° SSE
Cosmos 1666 Rocket 4.1 15:48:57 10° N 15:53:04 36° ENE 15:57:07 10° SE
AQUARIUS 4.5 15:49:07 10° SE 15:53:22 43° ENE 15:57:38 10° N
Cosmos 1809 Rocket 4.4 15:47:45 10° N 15:53:53 74° ENE 15:59:57 10° SSE
Cosmos 1125 Rocket 4.3 15:49:56 10° N 15:54:28 28° NE 15:58:59 10° ESE
CORIOLIS 4.3 15:50:03 10° SE 15:55:16 52° ENE 16:00:32 10° N
Cosmos 1634 Rocket 4.2 15:49:19 10° SSE 15:55:26 54° E 16:01:34 10° NNE
Cosmos 2195 Rocket 4.5 15:50:36 10° N 15:56:48 81° E 16:03:02 10° SSE
H-2A R/B 2.6 15:55:01 10° SE 15:59:35 34° ENE 16:04:04 10° N
Cosmos 2369 4.0 15:54:03 10° NNW 15:59:48 75° WSW 16:05:29 10° SSE
Cosmos 1812 3.4 15:59:00 10° SSE 16:02:28 33° E 16:05:57 10° NNE
PSLV R/B 4.3 16:00:21 10° SE 16:03:44 35° ENE 16:07:12 10° N
ATLAS CENTAUR R/B 3.8 16:02:07 10° NW 16:04:36 14° NNW 16:07:11 10° NNE
Okean O Rocket 2.8 16:01:18 10° ESE 16:04:38 21° ENE 16:07:59 10° NNE
Cosmos 2221 4.1 16:01:11 10° SW 16:05:07 34° WNW 16:09:06 10° N
SL-16 R/B 2.7 15:59:58 10° NNW 16:05:13 36° NE 16:10:25 10° ESE
USA 308 3.1 16:01:24 10° WNW 16:05:35 53° NNE 16:09:19 13° E
CZ-2C R/B 3.2 16:01:38 10° S 16:06:27 72° WSW 16:11:13 10° NNW
Sich 1 3.0 16:04:30 10° N 16:08:50 87° E 16:13:09 10° S
Cosmos 2082 Rocket 2.3 16:03:35 10° SSW 16:09:11 65° ESE 16:14:49 10° NNE
Cosmos 540 Rocket 3.5 16:05:02 10° SSW 16:10:08 86° WNW 16:15:18 10° NNE
ARGOS 3.9 16:06:07 10° ESE 16:10:44 30° ENE 16:15:20 10° N
Meteor 1-5 Rocket 4.4 16:04:54 10° N 16:10:47 55° ENE 16:16:33 10° SSE
FengYun 1-2 T 4.3 16:08:37 10° SSE 16:14:12 86° WSW 16:19:46 10° NNW
COSMOS 2455 2.9 16:09:49 10° SSW 16:15:51 84° ESE 16:21:45 11° NE
SMAP 3.0 16:12:15 10° SSE 16:16:54 83° ENE 16:21:36 10° NNW
NOAA 6 4.0 16:13:15 10° SSE 16:18:23 84° ENE 16:23:33 10° NNW
deb Chang Zheng 4 4.3 16:16:50 10° SE 16:20:38 31° ENE 16:24:26 10° N
Cosmos 1805 Rocket 4.3 16:17:03 10° NNW 16:21:19 56° W 16:25:32 10° S
Cosmos 1933 3.9 16:18:17 10° SSW 16:22:15 59° WNW 16:26:15 10° N
Cosmos 2278 3.8 16:16:33 10° NNW 16:22:18 85° WSW 16:27:58 10° SSE
Cosmos 1833 Rocket 3.3 16:17:08 10° SW 16:22:38 55° NW 16:28:12 10° NNE
Cosmos 2333 Rocket 3.6 16:20:16 10° N 16:24:21 19° NE 16:26:02 17° ENE
CZ-4B DEB 4.1 16:22:02 10° SSE 16:27:32 79° ENE 16:33:02 10° NNW
CZ-2C R/B 3.3 16:25:19 11° NNE 16:29:43 32° E 16:34:19 10° SSE
USA 305 2.9 16:25:48 10° WNW 16:30:01 65° NNE 16:32:51 20° E
Cosmos 1655 Rocket 4.3 16:25:13 10° N 16:31:22 46° ENE 16:37:26 10° SE
Cosmos 1356 Rocket 4.2 16:28:32 10° N 16:32:18 31° ENE 16:36:05 10° SE
Cosmos 2219 Rocket 3.6 16:28:39 10° N 16:32:27 18° NE 16:33:20 17° NE
CZ-4B R/B 4.4 16:29:25 10° SSW 16:33:05 38° W 16:36:37 10° NNW
Cosmos 1500 4.0 16:30:51 10° NNW 16:34:29 52° W 16:38:06 10° S
Meteor 1-14 Rocket 4.3 16:28:56 10° NNW 16:34:50 88° E 16:40:47 10° S
Cosmos 44 Rocket 3.3 16:31:42 10° NW 16:36:40 83° SW 16:41:27 10° SE
Meteor 2-16 Rocket 4.4 16:32:51 10° N 16:39:01 85° E 16:45:10 10° S
Cosmos 1515 Rocket 4.2 16:37:44 10° SSE 16:41:42 33° E 16:43:15 26° NE
COSMOS 2406 4.0 16:36:43 10° SW 16:42:18 51° NW 16:47:54 10° NNE
Cosmos 1814 Rocket 3.9 16:37:46 10° SSW 16:43:00 87° ESE 16:47:38 13° NNE
Cosmos 921 Rocket 3.3 16:40:08 10° S 16:44:07 44° ESE 16:45:57 27° NE
Cosmos 1570 Rocket 3.9 16:44:37 10° SSW 16:49:51 87° ESE 16:54:14 15° NNE
MOS 1-B Rocket 4.1 16:45:02 10° NNE 16:51:02 66° ESE 16:57:55 10° S
CZ-4B R/B 3.0 16:48:16 10° SSE 16:53:37 72° ENE 16:58:55 10° NNW
USA 267 3.2 16:50:26 23° ENE 16:54:45 79° SE 17:01:19 10° SW
Cosmos 2298 Rocket 3.9 16:49:45 10° NNW 16:55:07 84° ENE 17:00:28 10° SSE
Cosmos 371 Rocket 4.2 16:51:17 10° N 16:55:08 28° NE 16:55:08 28° NE
CZ-2D R/B 3.5 16:52:12 10° S 16:56:00 70° WSW 16:59:49 10° NNW
MOS 1-B 4.4 16:52:43 10° SSE 16:58:31 83° WSW 17:04:21 10° NNW
YAOGAN 3 4.5 16:55:24 10° SSE 16:59:41 62° ENE 17:04:01 10° N
ATLAS CENTAUR R/B 2.8 16:51:39 10° WSW 16:59:45 58° NNW 17:01:31 31° NE
COSMO-SKYMED 1 2.6 16:59:10 30° NE 17:01:04 54° E 17:05:19 10° S
Cosmos 1633 Rocket 3.6 16:57:08 10° NNW 17:01:27 60° W 17:05:46 10° S
Cosmos 1151 Rocket 3.4 16:57:49 10° SSW 17:02:07 65° WNW 17:06:30 10° N
Meteor 1-27 Rocket 4.0 16:57:13 10° SSE 17:02:17 39° E 17:04:00 31° NE
USA 306 2.8 16:58:06 10° WNW 17:02:23 86° NNE 17:03:51 40° ESE
Cosmos 1666 3.8 16:59:38 10° NNW 17:03:11 44° W 17:06:43 10° SSW
Landsat 5 4.1 17:05:03 35° SE 17:05:03 35° SE 17:08:01 10° SSE
APEX 3.3 17:01:15 10° SSW 17:04:23 45° SE 17:04:23 45° SE
Meteor 2-6 Rocket 4.1 16:59:28 10° S 17:05:10 86° ESE 17:10:45 10° NNE
Cosmos 2360 Rocket 2.4 17:00:48 10° NNW 17:06:17 46° NE 17:08:17 33° ESE
SJ-11-01 4.2 17:01:45 10° SSE 17:06:29 75° ENE 17:11:14 10° N
ISS -0.3 17:06:28 10° WSW 17:07:14 11° SW 17:08:01 10° SSW
YAOGAN 1 3.8 17:11:21 25° NNE 17:11:21 25° NNE 17:13:27 10° N
Cosmos 2237 4.2 17:03:54 10° NNW 17:09:35 63° ENE 17:13:44 19° SE
Cosmos 1900 4.3 17:04:45 10° SW 17:09:38 80° NW 17:11:53 33° NNE
Cosmos 1818 4.5 17:06:48 10° NW 17:12:06 50° WSW 17:17:18 10° SSE
CZ-2C R/B 3.9 17:16:43 10° SSW 17:17:51 11° S 17:19:00 10° SSE
Cosmos 2279 Rocket 4.4 17:12:06 10° SSW 17:18:15 64° WNW 17:24:26 10° N
Cosmos 1536 4.3 17:14:47 10° N 17:16:30 24° N 17:16:30 24° N
ATLAS 5 CENTAUR R/B 1.7 17:12:36 10° NW 17:19:10 84° SW 17:19:39 63° SSE
Meteor 2-15 4.4 17:14:24 10° S 17:20:31 89° E 17:26:39 10° N
Cosmos 2266 Rocket 4.0 17:14:09 10° N 17:20:36 90° W 17:27:02 10° S
ERBS 4.2 17:19:15 10° NW 17:20:46 21° NNW 17:20:46 21° NNW
USA 307 2.8 17:18:40 10° WNW 17:22:56 81° SSW 17:23:33 64° SE
CZ-4C R/B 4.2 17:16:18 10° NW 17:23:06 42° WSW 17:30:52 10° S
SL-08 RB Rocket 3.6 17:20:33 10° SSE 17:25:10 79° ENE 17:29:47 10° N
SKYMED 3 4.5 17:23:34 38° NNE 17:25:14 88° WNW 17:29:35 10° SSW
Lacrosse 5 rocket 3.0 17:22:10 10° WNW 17:25:39 30° SW 17:28:57 12° SSE
NOSS 3-4 (A) 4.1 17:21:01 10° NW 17:27:24 45° NNE 17:28:52 40° ENE
NOSS 3-4 (C) 4.1 17:21:07 10° NW 17:27:30 44° NNE 17:28:56 40° ENE
Cosmos 1933 Rocket 3.5 17:24:16 10° NNW 17:28:38 83° W 17:32:57 10° S
Cosmos 2322 Rocket 2.2 17:23:18 10° NNW 17:29:02 86° WSW 17:34:46 10° SSE
USA 234 3.8 17:23:12 10° SE 17:29:37 57° SW 17:36:03 10° WNW
ATLAS 2AS CENTAUR R/B 3.6 17:23:24 10° NW 17:30:03 32° NNE 17:31:18 30° NE
COSMOS 2428 3.9 17:25:09 10° NNW 17:28:44 26° NNE 17:28:44 26° NNE
NOAA 15 4.4 17:28:49 10° SSE 17:34:04 72° ENE 17:39:21 10° NNW
Cosmos 1544 4.0 17:31:15 10° NNW 17:34:45 48° W 17:38:14 10° S
Cosmos 1125 Rocket 4.2 17:31:43 10° NNW 17:36:50 53° WSW 17:41:57 10° S
Cosmos 1867 3.6 17:33:06 10° SSW 17:38:28 59° ESE 17:38:28 59° ESE
NOSS 3-3 (A) 4.2 17:33:18 10° S 17:38:22 45° SE 17:38:22 45° SE
NOSS 3-3 (C) 4.2 17:33:25 10° S 17:38:27 45° SE 17:38:27 45° SE
H-2A R/B 3.5 17:34:15 10° SSW 17:38:59 37° W 17:43:38 10° NNW
X-37B 3.3 17:37:11 10° SW 17:37:49 14° SSW 17:37:49 14° SSW
Okean O Rocket 2.3 17:36:17 10° S 17:40:39 54° W 17:45:03 10° NNW
GEOS 3 Rocket 3.6 17:41:55 59° NE 17:41:55 59° NE 17:46:55 10° NW
Meteor 1-11 Rocket 4.0 17:36:14 10° NNW 17:41:50 67° W 17:47:32 10° S
USA 32 3.9 17:38:56 10° S 17:44:10 90° WNW 17:46:22 36° N
ATLAS CENTAUR R/B 4.0 17:42:55 10° NNW 17:44:13 13° N 17:44:13 13° N
USA 308 3.3 17:41:22 10° WNW 17:45:21 60° SW 17:45:21 60° SW
SKYMED 2 4.3 17:47:47 37° NNW 17:49:08 52° WNW 17:53:21 10° SSW
SL-16 R/B 3.1 17:44:03 10° NW 17:49:29 48° WSW 17:54:53 10° S
ARGOS 4.0 17:45:32 10° S 17:50:46 50° W 17:56:02 10° NNW
Cosmos 2237 Rocket 4.2 17:47:32 10° N 17:49:04 15° N 17:49:04 15° N
Cosmos 2082 Rocket 3.8 17:48:51 10° WSW 17:53:44 29° NW 17:56:57 17° N
Cosmos 1244 Rocket 4.5 17:52:19 10° N 17:57:59 64° NE 17:57:59 64° NE
Cosmos 1241 Rocket 4.3 17:55:40 10° SSW 18:01:58 75° SE 18:01:58 75° SE
COSMOS 2455 4.4 17:57:19 10° W 18:02:29 29° NW 18:04:54 22° N
Cosmos 2333 Rocket 2.8 18:03:56 10° NNW 18:08:05 47° N 18:08:05 47° N
USA 305 4.4 18:05:48 10° WNW 18:08:52 34° WSW 18:08:52 34° WSW
CZ-2C R/B 3.7 18:06:50 19° N 18:10:07 41° WNW 18:14:56 10° SW
Cosmos 2219 Rocket 3.3 18:11:52 10° NNW 18:15:05 34° NNW 18:15:05 34° NNW
Aureole 3 Rocket 4.3 18:14:00 10° SSW 18:18:42 55° WNW 18:25:21 10° N
USA 267 3.6 18:37:47 55° NNW 18:37:47 55° NNW 18:43:58 10° W
Cosmos 2360 Rocket 3.5 18:45:04 10° NW 18:50:08 35° WSW 18:50:08 35° WSW
ATLAS 2AS CENTAUR R/B 4.1 19:14:53 10° NW 19:18:45 33° NNW 19:18:45 33° NNW
